Rome, GA

8:55 AM EDT on August 23, 2017 (GMT -0400)
Russell

Weather History for KRMG - February, 2014

Change the Weather History Date:

Monday, February 10, 2014

  Actual Average Record
Temperature  
Mean Temperature 38 °F 43 °F  
Max Temperature 42 °F 55 °F 70 °F (2000)
Min Temperature 34 °F 32 °F 21 °F (2016)
Degree Days  
Heating Degree Days 27 22  
Month to date heating degree days 239 225  
Since 1 July heating degree days 2473 2267  
Moisture  
Dew Point 34 °F    
Average Humidity 78    
Maximum Humidity 92    
Minimum Humidity 64    
Precipitation  
Precipitation T in 0.15 in 1.35 in (2013)
Month to date precipitation 1.73 1.62  
Year to date precipitation 5.02 6.44  
Snow  
Snow 0.00 in - - ()
Month to date snowfall 0.0  
Since 1 July snowfall T  
Snow Depth 0.00 in    
Sea Level Pressure  
Sea Level Pressure 30.13 in    
Wind  
Wind Speed 6 mph (North)    
Max Wind Speed 14 mph    
Max Gust Speed 23 mph    
Visibility 9 miles    
Events Rain    
T = Trace of Precipitation, MM = Missing Value Source: NWS Daily Summary

Daily Weather History Graph

Daily Weather History Graph

Search for Another Location

Airport or City:

Trip Planner

Search our weather history database for the weather conditions in past years. The results will help you decide how hot, cold, wet, or windy it might be!

Date:

Astronomy

Feb. 10, 2014 Rise Set
Actual Time 7:30 AM EST 6:19 PM EST
Civil Twilight 7:04 AM EST 6:45 PM EST
Nautical Twilight 6:35 AM EST 7:15 PM EST
Astronomical Twilight 6:05 AM EST 7:44 PM EST
Moon 2:52 PM EST (2/10) 4:19 AM EST (2/10)
Length of Visible Light 11h 40m
Length of Day
10h 48m
Waxing Gibbous, 84% of the Moon is Illuminated
Feb 10
Waxing Gibbous
Feb 14
Full
Feb 22
Last Quarter
Mar 1
New
Mar 8
First Quarter

Hourly Weather History & Observations

Time (EST) Temp. Windchill Dew Point Humidity Pressure Visibility Wind Dir Wind Speed Gust Speed Precip Events Conditions
12:53 AM 35.1 °F - 34.0 °F 96% 30.09 in 8.0 mi Calm Calm - N/A   Clear
1:53 AM 39.9 °F 36.7 °F 37.0 °F 89% 30.11 in 10.0 mi North 4.6 mph - N/A   Mostly Cloudy
2:53 AM 41.0 °F 37.1 °F 37.0 °F 86% 30.09 in 10.0 mi NNW 5.8 mph - N/A   Overcast
3:53 AM 41.0 °F - 37.0 °F 86% 30.08 in 10.0 mi Calm Calm - N/A   Overcast
4:53 AM 41.0 °F - 37.0 °F 86% 30.09 in 10.0 mi Calm Calm - N/A   Overcast
5:53 AM 41.0 °F 39.0 °F 37.0 °F 86% 30.09 in 10.0 mi NNW 3.5 mph - N/A   Overcast
6:53 AM 41.0 °F 37.1 °F 36.0 °F 82% 30.09 in 10.0 mi North 5.8 mph - N/A   Overcast
7:53 AM 41.0 °F 36.4 °F 36.0 °F 82% 30.11 in 10.0 mi NNW 6.9 mph - 0.00 in   Overcast
8:45 AM 39.2 °F 33.0 °F 37.4 °F 93% 30.14 in 8.0 mi NNW 9.2 mph - 0.00 in Rain Light Rain
8:53 AM 39.9 °F 35.1 °F 37.0 °F 89% 30.14 in 6.0 mi NNW 6.9 mph - 0.00 in Rain Light Rain
9:06 AM 39.2 °F 32.5 °F 37.4 °F 93% 30.14 in 8.0 mi North 10.4 mph - 0.00 in   Overcast
9:44 AM 39.2 °F 34.2 °F 37.4 °F 93% 30.16 in 6.0 mi North 6.9 mph - 0.00 in   Overcast
9:51 AM 39.2 °F 33.6 °F 37.4 °F 93% 30.16 in 7.0 mi North 8.1 mph - 0.00 in   Overcast
9:53 AM 39.0 °F 33.4 °F 37.0 °F 93% 30.17 in 6.0 mi North 8.1 mph - 0.00 in   Overcast
10:53 AM 37.9 °F 32.7 °F 36.0 °F 93% 30.18 in 4.0 mi North 6.9 mph - 0.00 in   Overcast
11:53 AM 39.0 °F 34.8 °F 37.0 °F 93% 30.17 in 9.0 mi North 5.8 mph - N/A   Overcast
12:39 PM 39.2 °F 33.6 °F 35.6 °F 87% 30.15 in 10.0 mi North 8.1 mph - N/A   Overcast
12:53 PM 39.9 °F 35.8 °F 35.1 °F 83% 30.14 in 10.0 mi North 5.8 mph - N/A   Overcast
1:53 PM 39.9 °F 32.9 °F 34.0 °F 79% 30.13 in 10.0 mi North 11.5 mph - N/A   Overcast
2:08 PM 39.2 °F 33.0 °F 33.8 °F 81% 30.12 in 10.0 mi North 9.2 mph - N/A   Overcast
2:53 PM 39.0 °F 32.8 °F 33.1 °F 79% 30.12 in 10.0 mi North 9.2 mph - 0.00 in Rain Light Rain
3:11 PM 39.2 °F 33.6 °F 33.8 °F 81% 30.11 in 10.0 mi North 8.1 mph - 0.00 in   Overcast
3:34 PM 39.2 °F 34.2 °F 33.8 °F 81% 30.11 in 10.0 mi North 6.9 mph - 0.00 in   Overcast
3:43 PM 39.2 °F 33.0 °F 33.8 °F 81% 30.12 in 10.0 mi North 9.2 mph - 0.00 in   Overcast
3:53 PM 39.9 °F 34.5 °F 33.1 °F 77% 30.13 in 10.0 mi NNW 8.1 mph - 0.00 in   Overcast
4:53 PM 39.9 °F 35.1 °F 32.0 °F 73% 30.13 in 10.0 mi North 6.9 mph - N/A   Overcast
5:53 PM 41.0 °F 36.4 °F 30.9 °F 67% 30.15 in 10.0 mi North 6.9 mph - N/A   Overcast
6:02 PM 41.0 °F 37.1 °F 30.2 °F 65% 30.16 in 10.0 mi North 5.8 mph - N/A   Overcast
6:53 PM 39.9 °F 33.9 °F 30.0 °F 68% 30.16 in 10.0 mi North 9.2 mph - N/A   Clear
7:53 PM 39.0 °F 36.8 °F 28.9 °F 67% 30.17 in 10.0 mi North 3.5 mph - N/A   Clear
8:53 PM 37.9 °F 33.5 °F 28.9 °F 70% 30.18 in 10.0 mi NNW 5.8 mph - N/A   Clear
9:53 PM 37.9 °F 32.7 °F 28.0 °F 68% 30.18 in 10.0 mi North 6.9 mph - N/A   Partly Cloudy
10:53 PM 37.9 °F 30.9 °F 26.1 °F 62% 30.18 in 10.0 mi North 10.4 mph - N/A   Overcast
11:53 PM 37.0 °F 29.3 °F 26.1 °F 65% 30.16 in 10.0 mi North 11.5 mph - N/A   Overcast